Regional Weather Roundup
Issued by NWS Austin/San Antonio, TX

Home | Current Version | Previous Version | Text Only | Print | Product List | Glossary On
Versions: 1 2 3 4 5 6 7 8 9 10 11 12 13 14 15 16 17 18 19 20 21 22 23 24 25 26 27 28 29 30 31 32 33 34 35 36 37 38 39 40 41 42 43 44 45 46 47 48 49 50
000
ASUS44 KEWX 191301
RWREWX
SOUTH TEXAS REGIONAL WEATHER ROUNDUP
NATIONAL WEATHER SERVICE AUSTIN/SAN ANTONIO TX
700 AM CST MON FEB 19 2018

NOTE: "FAIR" INDICATED FEW OR NO CLOUDS BELOW 12,000 FEET WITH NO
SIGNIFICANT WEATHER AND/OR OBSTRUCTIONS TO VISIBILITY.

* - THESE STATIONS ARE NOT NWS OR FAA STATIONS...AND ARE NOT SUBJECT
    TO NWS AND FAA QUALITY CONTROL.

TXZ171-172-183>190-191400-
TEXAS HILL COUNTRY AND EDWARDS PLATEAU

CITY           SKY/WX    TMP DP  RH WIND       PRES   REMARKS
JUNCTION       LGT RAIN  66  63  90 S20G36    29.83R
*LLANO           N/A    N/A N/A N/A MISG        N/A
BURNET         CLOUDY    68  63  84 S9        29.94S
*HORSESHOE BAY MOCLDY    68  62  81 S5        29.92F
*KERRVILLE     CLOUDY    65  61  86 S13G18    29.92F
*FREDERICKSBRG CLOUDY    67  59  77 S9        29.92F
*ROCKSPRINGS   CLOUDY    63  61  94 SE18G28   29.90F
*BOERNE STAGE  CLOUDY    64  63  94 S13       29.94S
*CASTROVILLE   CLOUDY    67  66  96 E6        29.92F
HONDO          CLOUDY    70  65  84 SE8       29.90S
*UVALDE        CLOUDY    66  64  91 E9        29.89S
DEL RIO        CLOUDY    67  64  90 SE12      29.82R
LAUGHLIN AFB   CLOUDY    67  64  87 SE15      29.82S
CARRIZO SPRGS  MOCLDY    66  64  94 CALM      29.85R
*EAGLE PASS    CLOUDY    70  64  83 SE8       29.84S
*FAITH RANCH   CLOUDY    68  66  94 SE8       29.85R
$$

TXZ173-191>194-202-209-217>225-228-191400-
CENTRAL AND SOUTH CENTRAL TEXAS

CITY           SKY/WX    TMP DP  RH WIND       PRES   REMARKS
GEORGETOWN     MOCLDY    69  64  84 S10       29.95R
AUSTIN/BERGSTM CLOUDY    69  67  93 S8        29.93R
AUSTIN/MABRY   CLOUDY    69  65  86 S5        29.94R
*AUSTIN/EXEC   CLOUDY    68  68 100 S7        29.95R
*LAGO VISTA    CLOUDY    68  65  90 S7        29.95S
SAN MARCOS     MOCLDY    67  65  93 S7        29.94R
NEW BRAUNFELS  CLOUDY    69  65  86 S9        29.92R
RANDOLPH AFB   CLOUDY    68  65  88 SE8       29.92S
PT SAN ANTONIO MOCLDY    68  65  90 SE8       29.90S
SAN ANTONIO    CLOUDY    67  64  90 SE8       29.92S
STINSON FIELD  CLOUDY    70  66  87 SE8       29.90R
*LA GRANGE     CLOUDY    72  68  88 S9G18     29.93R
*GIDDINGS      CLOUDY    69  64  85 S9G16     29.96R
*GONZALES      MOCLDY    71  68  90 S15G21    29.93R
$$

TXZ163>164-176>182-195>201-210>213-226-227-235-191400-
SOUTHEAST TEXAS

CITY           SKY/WX    TMP DP  RH WIND       PRES   REMARKS
COLLEGE STN    CLOUDY    69  66  90 S14       29.96R
*BRYAN         CLOUDY    68  68 100 SE8       29.97S
*CALDWELL      CLOUDY    69  66  90 S9        29.95S
*CROCKETT      LGT RAIN  66  63  88 SE7       30.01S
*BRENHAM       CLOUDY    71  67  86 S12       29.97R
HUNTSVILLE     CLOUDY    70  64  81 S8        29.98R
CONROE         CLOUDY    69  67  93 SE8       30.00R
HOUSTON BUSH   CLOUDY    71  67  87 S12       30.00R
HOUSTON HOBBY  MOCLDY    67  67 100 S9        29.99R
*HOUSTON SW AP CLOUDY    66  65  97 SE5       30.01R
PEARLAND       CLOUDY    67  67 100 S8        30.01R
HOUSTON HOOKS  CLOUDY    71  67  87 S7        29.99R
ELLINGTON FLD  MOCLDY    66  63  88 S7        30.01R
SUGAR LAND     CLOUDY    72  67  84 S16       29.98R
*HOUSTON EXEC  MOCLDY    70  66  88 S13       29.99R
*CLEVELAND MUN CLOUDY    68  64  86 S9        30.02R
*WHARTON       FAIR      68  65  91 SE13G18   29.98R
*COLUMBUS      CLOUDY    69  67  90 S10G17    29.98R
*EAGLE LAKE    CLOUDY    71  69  93 S12G20    29.97R
$$

TXZ214>216-236>238-191400-
THE UPPER TEXAS COAST

CITY           SKY/WX    TMP DP  RH WIND       PRES   REMARKS
*ORANGE        FAIR      66  66 100 S7        30.07R
PORT ARTHUR    MOCLDY    66  64  93 S12       30.04R
GALVESTON      FAIR      68  66  93 SE17      30.01R
ANGLETON       CLOUDY    70  66  87 S13       29.99S
*BAY CITY      FAIR      69  68  98 SE10      29.98S
PALACIOS       FAIR      68  68 100 SE14      29.96R
$$

TXZ229>234-239>247-191400-
TEXAS COASTAL BEND AND RIO GRANDE PLAINS

CITY           SKY/WX    TMP DP  RH WIND       PRES   REMARKS
VICTORIA       CLOUDY    70  67  90 S12       29.97R
*BEEVILLE      CLOUDY    69  66  92 SE16      29.92F
ROCKPORT       CLOUDY    68  67  96 SE7       29.95R FOG
*PORT ARANSAS  NOT AVBL
*PORT LAVACA   CLOUDY    68  66  93 S6        29.97R
*INGLESIDE     CLOUDY    70  68  93 MISG      29.93R
CORPUS CHRISTI CLOUDY    69  69 100 S20       29.93R
CORPUS NAS     CLOUDY    69  69 100 S18G26    29.92R FOG
*ROBSTOWN      CLOUDY    69  67  94 S13G20    29.93R
ALICE          CLEAR     68  65  90 SE8       29.90R
KINGSVILLE NAS MOCLDY    68  66  93 SE8       29.91R
COTULLA        MOCLDY    69  65  86 SE13      29.85F
LAREDO         MOCLDY    69  64  84 SE20      29.83F
$$

TXZ248>255-191400-
DEEP SOUTH TEXAS

CITY           SKY/WX    TMP DP  RH WIND       PRES   REMARKS
BROWNSVILLE    FAIR      71  70  96 S16       29.94R
PORT ISABEL    CLOUDY    71  67  87 S16G22    29.92S
*SOUTH PADRE   NOT AVBL
HARLINGEN      MOCLDY    71  69  93 S18       29.91S
*HEBBRONVILLE  FAIR      66  64  91 S10       29.88F
MCALLEN        FAIR      73  69  87 SE21G28   29.90R
*WESLACO       NOT AVBL
FALFURRIAS     MOCLDY    70  66  88 SE6       29.90R
EDINBURG       CLOUDY    73  67  79 SE16G28   29.90S
*ZAPATA        FAIR      69  63  82 SE8       29.85S
$$

TXZ213>215-236>238-242>244-246-247-251-254-255-191400-
CMAN STATIONS

STATION/POSITION TIME  TEMP    WIND        PRES    WAVE
                       AIR SEA DIR/SP/G            HT/PER
                 (UTC) (F)     (DEG/KT/KT) (MB)    (FT/S)
SABINE PASS      1230   65 67  160/  9/ 11 1018.8
SEA RIM ST PARK  1200   63     160/  6/  8 1017.5
NORTH JETTY/GLS  1230      60  140/ 14/ 16 1015.9
EAGLE POINT      1230   67 65  180/ 12/ 14 1016.0
MORGANS POINT    1230   65 63  140/  8/ 11 1015.8
PORT O`CONNOR    1230   65 63  140/ 13/ 15 1013.7
MALAQUITE BEACH  1230   91 63  140/ 14/ 16 1012.6
BAFFIN BAY       1230   65 68  140/ 15/ 20 1013.1
PORT ISABEL      1230   68 65  160/ 11/ 14 1013.5
$$



USA.gov is the U.S. government's official web portal to all federal, state and local government web resources and services.